When you browse on this site, cookies collect data to enhance your experience and personalize the content and advertising you see.
Visit our Privacy Policy to learn more. By continuing to use the site, you agree to this use of cookies and data.
  • In Romania
  • List of Countries
  • For 7 days
  • Water Temperature
  • Weather Map
  • Weather Widgets
  • user-avatar
    Login

    Hourly Weather Gloucester

    Today, 12 December, Thursday

    Time Temperature Precipitation Wind Pressure Humidity
    00:00 +1°C° 0 mm 3 mps 746 mmHg 88%
    01:00 +1°C° 0 mm 3 mps 745 mmHg 89%
    02:00 +1°C° 0 mm 3 mps 744 mmHg 89%
    03:00 +1°C° 0 mm 3 mps 743 mmHg 90%
    04:00 +1°C° 0.1 mm 4 mps 742 mmHg 90%
    05:00 +1°C° 0.1 mm 4 mps 741 mmHg 91%
    06:00 +1°C° 0 mm 5 mps 740 mmHg 91%
    07:00 +2°C° 1.2 mm 5 mps 738 mmHg 93%
    08:00 +3°C° 1.2 mm 6 mps 737 mmHg 94%
    09:00 +4°C° 1.2 mm 6 mps 735 mmHg 95%
    10:00 +5°C° 0.8 mm 6 mps 734 mmHg 95%
    11:00 +7°C° 0.8 mm 6 mps 733 mmHg 94%
    12:00 +8°C° 0.8 mm 6 mps 731 mmHg 94%
    13:00 +7°C° 1.2 mm 5 mps 730 mmHg 95%
    14:00 +7°C° 1.2 mm 4 mps 729 mmHg 96%
    15:00 +8°C° 1.2 mm 3 mps 728 mmHg 97%
    16:00 +6°C° 0.1 mm 4 mps 728 mmHg 95%
    17:00 +6°C° 0.1 mm 4 mps 728 mmHg 93%
    18:00 +5°C° 0.1 mm 4 mps 727 mmHg 91%
    19:00 +5°C° 0.1 mm 4 mps 726 mmHg 92%
    20:00 +5°C° 0.1 mm 4 mps 726 mmHg 93%
    21:00 +5°C° 0.1 mm 4 mps 725 mmHg 94%
    22:00 +5°C° 0.9 mm 5 mps 725 mmHg 92%
    23:00 +4°C° 0.9 mm 7 mps 724 mmHg 90%

    Tomorrow, 13 December, Friday

    Time Temperature Precipitation Wind Pressure Humidity
    00:00 +4°C° 0.9 mm 8 mps 724 mmHg 87%
    01:00 +4°C° 0.5 mm 8 mps 724 mmHg 86%
    02:00 +4°C° 0.5 mm 8 mps 724 mmHg 84%
    03:00 +4°C° 0.5 mm 8 mps 725 mmHg 82%
    04:00 +2°C° 0 mm 8 mps 725 mmHg 82%
    05:00 +1°C° 0 mm 8 mps 726 mmHg 83%
    06:00 +1°C° 0 mm 9 mps 727 mmHg 84%
    07:00 +1°C° 0 mm 8 mps 727 mmHg 83%
    08:00 +1°C° 0 mm 8 mps 728 mmHg 82%
    09:00 +1°C° 0 mm 8 mps 729 mmHg 81%
    10:00 +2°C° 0 mm 8 mps 730 mmHg 80%
    11:00 +4°C° 0 mm 8 mps 730 mmHg 80%
    12:00 +4°C° 0 mm 8 mps 731 mmHg 80%
    13:00 +4°C° 0 mm 8 mps 731 mmHg 81%
    14:00 +5°C° 0 mm 8 mps 732 mmHg 82%
    15:00 +5°C° 0 mm 8 mps 732 mmHg 83%
    16:00 +4°C° 0 mm 8 mps 733 mmHg 82%
    17:00 +3°C° 0 mm 7 mps 733 mmHg 81%
    18:00 +3°C° 0 mm 7 mps 734 mmHg 80%
    19:00 +2°C° 0 mm 6 mps 734 mmHg 81%
    20:00 +2°C° 0 mm 5 mps 733 mmHg 82%
    21:00 +1°C° 0 mm 4 mps 733 mmHg 83%
    22:00 +3°C° 0.2 mm 4 mps 732 mmHg 87%
    23:00 +4°C° 0.2 mm 4 mps 731 mmHg 91%

    Day after tomorrow, 14 December, Saturday

    Time Temperature Precipitation Wind Pressure Humidity
    00:00 +4°C° 0.2 mm 4 mps 730 mmHg 95%
    01:00 +3°C° 0.1 mm 5 mps 731 mmHg 91%
    02:00 +4°C° 0.1 mm 7 mps 732 mmHg 87%
    03:00 +4°C° 0.1 mm 8 mps 733 mmHg 83%
    04:00 +2°C° 0 mm 8 mps 733 mmHg 81%
    05:00 +1°C° 0 mm 8 mps 734 mmHg 79%
    06:00 +1°C° 0 mm 8 mps 735 mmHg 76%
    07:00 0°C° 0 mm 7 mps 736 mmHg 76%
    08:00 0°C° 0 mm 7 mps 736 mmHg 76%
    09:00 +1°C° 0 mm 6 mps 737 mmHg 76%
    10:00 +2°C° 0 mm 7 mps 737 mmHg 73%
    11:00 +3°C° 0 mm 7 mps 738 mmHg 70%
    12:00 +2°C° 0 mm 8 mps 738 mmHg 66%
    13:00 +3°C° 0 mm 7 mps 739 mmHg 68%
    14:00 +3°C° 0 mm 5 mps 739 mmHg 69%
    15:00 +3°C° 0 mm 4 mps 739 mmHg 70%
    16:00 +1°C° 0 mm 4 mps 738 mmHg 74%
    17:00 +1°C° 0 mm 4 mps 738 mmHg 78%
    18:00 0°C° 0 mm 4 mps 737 mmHg 82%
    19:00 +1°C° 0.9 mm 5 mps 736 mmHg 85%
    20:00 +2°C° 0.9 mm 7 mps 735 mmHg 87%
    21:00 +3°C° 0.9 mm 9 mps 735 mmHg 89%
    22:00 +2°C° 0.3 mm 8 mps 734 mmHg 84%
    23:00 +2°C° 0.3 mm 8 mps 734 mmHg 79%

    15 December, Sunday

    Time Temperature Precipitation Wind Pressure Humidity
    00:00 +1°C° 0.3 mm 8 mps 733 mmHg 74%
    01:00 +1°C° 0 mm 9 mps 734 mmHg 74%
    02:00 0°C° 0 mm 10 mps 735 mmHg 73%
    03:00 -1°C° 0 mm 11 mps 736 mmHg 72%
    04:00 -1°C° 0 mm 9 mps 737 mmHg 74%
    05:00 -1°C° 0 mm 6 mps 739 mmHg 76%
    06:00 0°C° 0 mm 3 mps 740 mmHg 78%
    07:00 0°C° 0 mm 3 mps 740 mmHg 79%
    08:00 0°C° 0 mm 4 mps 740 mmHg 81%
    09:00 0°C° 0 mm 4 mps 741 mmHg 83%
    10:00 +1°C° 0 mm 5 mps 740 mmHg 81%
    11:00 +3°C° 0 mm 5 mps 740 mmHg 79%
    12:00 +4°C° 0 mm 6 mps 739 mmHg 77%
    13:00 +4°C° 0.7 mm 6 mps 739 mmHg 77%
    14:00 +3°C° 0.7 mm 6 mps 739 mmHg 77%
    15:00 +3°C° 0.7 mm 7 mps 739 mmHg 78%
    16:00 +3°C° 0 mm 6 mps 739 mmHg 79%
    17:00 +2°C° 0 mm 6 mps 739 mmHg 80%
    18:00 +1°C° 0 mm 5 mps 740 mmHg 81%
    19:00 +1°C° 0 mm 5 mps 740 mmHg 82%
    20:00 +1°C° 0 mm 5 mps 740 mmHg 82%
    21:00 +1°C° 0 mm 5 mps 740 mmHg 83%
    22:00 +1°C° 0 mm 5 mps 740 mmHg 83%
    23:00 +1°C° 0 mm 5 mps 740 mmHg 83%

    16 December, Monday

    Time Temperature Precipitation Wind Pressure Humidity
    00:00 +1°C° 0 mm 5 mps 740 mmHg 83%
    01:00 +2°C° 0 mm 5 mps 741 mmHg 83%
    02:00 +2°C° 0 mm 6 mps 741 mmHg 83%
    03:00 +2°C° 0 mm 6 mps 741 mmHg 83%
    04:00 +2°C° 0 mm 5 mps 741 mmHg 83%
    05:00 +2°C° 0 mm 5 mps 741 mmHg 84%
    06:00 +2°C° 0 mm 5 mps 741 mmHg 84%
    07:00 +2°C° 0 mm 5 mps 741 mmHg 84%
    08:00 +2°C° 0 mm 5 mps 741 mmHg 84%
    09:00 +2°C° 0 mm 5 mps 741 mmHg 83%
    10:00 +3°C° 0 mm 6 mps 741 mmHg 81%
    11:00 +4°C° 0 mm 6 mps 741 mmHg 78%
    12:00 +5°C° 0 mm 7 mps 741 mmHg 76%
    13:00 +5°C° 0 mm 6 mps 741 mmHg 77%
    14:00 +5°C° 0 mm 6 mps 741 mmHg 79%
    15:00 +5°C° 0 mm 5 mps 741 mmHg 80%
    16:00 +5°C° 0 mm 5 mps 742 mmHg 83%
    17:00 +3°C° 0 mm 5 mps 742 mmHg 85%
    18:00 +3°C° 0 mm 4 mps 742 mmHg 88%
    19:00 +3°C° 0 mm 4 mps 743 mmHg 89%
    20:00 +3°C° 0 mm 4 mps 744 mmHg 90%
    21:00 +1°C° 0 mm 4 mps 744 mmHg 91%
    22:00 +2°C° 0 mm 3 mps 745 mmHg 91%
    23:00 +1°C° 0 mm 3 mps 745 mmHg 91%

    17 December, Tuesday

    Time Temperature Precipitation Wind Pressure Humidity
    00:00 +2°C° 0 mm 2 mps 746 mmHg 91%
    01:00 +2°C° 0 mm 2 mps 746 mmHg 91%
    02:00 +2°C° 0 mm 2 mps 747 mmHg 91%
    03:00 +1°C° 0 mm 2 mps 747 mmHg 91%
    04:00 +1°C° 0 mm 2 mps 747 mmHg 90%
    05:00 +1°C° 0 mm 2 mps 748 mmHg 90%
    06:00 +1°C° 0 mm 2 mps 748 mmHg 90%
    07:00 +1°C° 0 mm 2 mps 749 mmHg 90%
    08:00 +1°C° 0 mm 2 mps 749 mmHg 89%
    09:00 +2°C° 0 mm 1 mps 750 mmHg 89%
    10:00 +2°C° 0 mm 2 mps 750 mmHg 86%
    11:00 +4°C° 0 mm 2 mps 750 mmHg 83%
    12:00 +5°C° 0 mm 2 mps 751 mmHg 80%
    13:00 +5°C° 0 mm 2 mps 751 mmHg 82%
    14:00 +4°C° 0 mm 2 mps 752 mmHg 84%
    15:00 +4°C° 0 mm 2 mps 752 mmHg 86%
    16:00 +4°C° 0 mm 2 mps 752 mmHg 87%
    17:00 +3°C° 0 mm 2 mps 753 mmHg 88%
    18:00 +1°C° 0 mm 3 mps 753 mmHg 90%
    19:00 +1°C° 0 mm 3 mps 753 mmHg 90%
    20:00 +1°C° 0 mm 3 mps 754 mmHg 90%
    21:00 +1°C° 0 mm 3 mps 754 mmHg 90%
    22:00 +1°C° 0 mm 3 mps 755 mmHg 89%
    23:00 +1°C° 0 mm 3 mps 755 mmHg 89%
    Show more